Year,Month,Day,Hour,Minute,Value (Times are PST for windgust in km/hr)
2007,11,12,00,00,9.60
2007,11,12,00,01,9.60
2007,11,12,00,02,6.40
2007,11,12,00,03,6.40
2007,11,12,00,04,14.50
2007,11,12,00,05,4.80
2007,11,12,00,06,16.10
2007,11,12,00,07,11.30
2007,11,12,00,08,4.80
2007,11,12,00,09,8.10
2007,11,12,00,10,19.30
2007,11,12,00,11,16.10
2007,11,12,00,12,9.60
2007,11,12,00,13,6.40
2007,11,12,00,14,11.30
2007,11,12,00,15,14.50
2007,11,12,00,16,19.30
2007,11,12,00,17,16.10
2007,11,12,00,18,16.10
2007,11,12,00,19,8.10
2007,11,12,00,20,14.50
2007,11,12,00,21,9.60
2007,11,12,00,22,11.30
2007,11,12,00,23,9.60
2007,11,12,00,24,14.50
2007,11,12,00,25,16.10
2007,11,12,00,26,6.40
2007,11,12,00,27,9.60
2007,11,12,00,28,16.10
2007,11,12,00,29,4.80
2007,11,12,00,30,6.40
2007,11,12,00,31,14.50
2007,11,12,00,32,11.30
2007,11,12,00,33,19.30
2007,11,12,00,34,6.40
2007,11,12,00,35,11.30
2007,11,12,00,36,8.10
2007,11,12,00,37,25.70
2007,11,12,00,38,20.90
2007,11,12,00,39,6.40
2007,11,12,00,40,16.10
2007,11,12,00,41,12.90
2007,11,12,00,42,8.10
2007,11,12,00,43,8.10
2007,11,12,00,44,8.10
2007,11,12,00,45,17.70
2007,11,12,00,46,20.90
2007,11,12,00,47,16.10
2007,11,12,00,48,20.90
2007,11,12,00,49,24.20
2007,11,12,00,50,9.60
2007,11,12,00,51,14.50
2007,11,12,00,52,14.50
2007,11,12,00,53,14.50
2007,11,12,00,54,17.70
2007,11,12,00,55,9.60
2007,11,12,00,56,9.60
2007,11,12,00,57,11.30
2007,11,12,00,58,16.10
2007,11,12,00,59,17.70
2007,11,12,01,00,14.50
2007,11,12,01,01,9.60
2007,11,12,01,02,6.40
2007,11,12,01,03,11.30
2007,11,12,01,04,4.80
2007,11,12,01,05,17.70
2007,11,12,01,06,16.10
2007,11,12,01,07,9.60
2007,11,12,01,08,8.10
2007,11,12,01,09,8.10
2007,11,12,01,10,16.10
2007,11,12,01,11,9.60
2007,11,12,01,12,16.10
2007,11,12,01,13,4.80
2007,11,12,01,14,14.50
2007,11,12,01,15,19.30
2007,11,12,01,16,19.30
2007,11,12,01,17,24.20
2007,11,12,01,18,20.90
2007,11,12,01,19,17.70
2007,11,12,01,20,19.30
2007,11,12,01,21,24.20
2007,11,12,01,22,20.90
2007,11,12,01,23,16.10
2007,11,12,01,24,11.30
2007,11,12,01,25,9.60
2007,11,12,01,26,6.40
2007,11,12,01,27,20.90
2007,11,12,01,28,9.60
2007,11,12,01,29,17.70
2007,11,12,01,30,6.40
2007,11,12,01,31,8.10
2007,11,12,01,32,9.60
2007,11,12,01,33,4.80
2007,11,12,01,34,4.80
2007,11,12,01,35,6.40
2007,11,12,01,36,6.40
2007,11,12,01,37,4.80
2007,11,12,01,38,3.20
2007,11,12,01,39,4.80
2007,11,12,01,40,3.20
2007,11,12,01,41,6.40
2007,11,12,01,42,4.80
2007,11,12,01,43,6.40
2007,11,12,01,44,16.10
2007,11,12,01,45,6.40
2007,11,12,01,46,3.20
2007,11,12,01,47,4.80
2007,11,12,01,48,6.40
2007,11,12,01,49,6.40
2007,11,12,01,50,4.80
2007,11,12,01,51,6.40
2007,11,12,01,52,9.60
2007,11,12,01,53,14.50
2007,11,12,01,54,3.20
2007,11,12,01,55,3.20
2007,11,12,01,56,3.20
2007,11,12,01,57,6.40
2007,11,12,01,58,8.10
2007,11,12,01,59,6.40
2007,11,12,02,00,4.80
2007,11,12,02,01,1.60
2007,11,12,02,02,6.40
2007,11,12,02,03,6.40
2007,11,12,02,04,14.50
2007,11,12,02,05,11.30
2007,11,12,02,06,8.10
2007,11,12,02,07,9.60
2007,11,12,02,08,1.60
2007,11,12,02,09,4.80
2007,11,12,02,10,6.40
2007,11,12,02,11,1.60
2007,11,12,02,12,6.40
2007,11,12,02,13,9.60
2007,11,12,02,14,8.10
2007,11,12,02,15,9.60
2007,11,12,02,16,6.40
2007,11,12,02,17,4.80
2007,11,12,02,18,1.60
2007,11,12,02,19,4.80
2007,11,12,02,20,9.60
2007,11,12,02,21,11.30
2007,11,12,02,22,8.10
2007,11,12,02,23,8.10
2007,11,12,02,24,8.10
2007,11,12,02,25,16.10
2007,11,12,02,26,9.60
2007,11,12,02,27,6.40
2007,11,12,02,28,8.10
2007,11,12,02,29,8.10
2007,11,12,02,30,6.40
2007,11,12,02,31,6.40
2007,11,12,02,32,1.60
2007,11,12,02,33,4.80
2007,11,12,02,34,9.60
2007,11,12,02,35,11.30
2007,11,12,02,36,16.10
2007,11,12,02,37,11.30
2007,11,12,02,38,8.10
2007,11,12,02,39,6.40
2007,11,12,02,40,4.80
2007,11,12,02,41,6.40
2007,11,12,02,42,6.40
2007,11,12,02,43,17.70
2007,11,12,02,44,8.10
2007,11,12,02,45,6.40
2007,11,12,02,46,4.80
2007,11,12,02,47,16.10
2007,11,12,02,48,6.40
2007,11,12,02,49,6.40
2007,11,12,02,50,4.80
2007,11,12,02,51,11.30
2007,11,12,02,52,17.70
2007,11,12,02,53,19.30
2007,11,12,02,54,8.10
2007,11,12,02,55,8.10
2007,11,12,02,56,4.80
2007,11,12,02,57,6.40
2007,11,12,02,58,6.40
2007,11,12,02,59,6.40
2007,11,12,03,00,8.10
2007,11,12,03,01,4.80
2007,11,12,03,02,1.60
2007,11,12,03,03,8.10
2007,11,12,03,04,4.80
2007,11,12,03,05,6.40
2007,11,12,03,06,11.30
2007,11,12,03,07,4.80
2007,11,12,03,08,11.30
2007,11,12,03,09,3.20
2007,11,12,03,10,3.20
2007,11,12,03,11,1.60
2007,11,12,03,12,8.10
2007,11,12,03,13,3.20
2007,11,12,03,14,4.80
2007,11,12,03,15,3.20
2007,11,12,03,16,6.40
2007,11,12,03,17,4.80
2007,11,12,03,18,9.60
2007,11,12,03,19,6.40
2007,11,12,03,20,8.10
2007,11,12,03,21,11.30
2007,11,12,03,22,3.20
2007,11,12,03,23,3.20
2007,11,12,03,24,9.60
2007,11,12,03,25,4.80
2007,11,12,03,26,11.30
2007,11,12,03,27,17.70
2007,11,12,03,28,32.20
2007,11,12,03,29,29.00
2007,11,12,03,30,19.30
2007,11,12,03,31,37.00
2007,11,12,03,32,27.40
2007,11,12,03,33,33.80
2007,11,12,03,34,27.40
2007,11,12,03,35,24.20
2007,11,12,03,36,30.60
2007,11,12,03,37,14.50
2007,11,12,03,38,14.50
2007,11,12,03,39,32.20
2007,11,12,03,40,33.80
2007,11,12,03,41,9.60
2007,11,12,03,42,33.80
2007,11,12,03,43,40.20
2007,11,12,03,44,19.30
2007,11,12,03,45,40.20
2007,11,12,03,46,33.80
2007,11,12,03,47,25.70
2007,11,12,03,48,20.90
2007,11,12,03,49,17.70
2007,11,12,03,50,20.90
2007,11,12,03,51,17.70
2007,11,12,03,52,22.50
2007,11,12,03,53,19.30
2007,11,12,03,54,17.70
2007,11,12,03,55,29.00
2007,11,12,03,56,22.50
2007,11,12,03,57,27.40
2007,11,12,03,58,19.30
2007,11,12,03,59,38.60
2007,11,12,04,00,12.90
2007,11,12,04,01,27.40
2007,11,12,04,02,25.70
2007,11,12,04,03,25.70
2007,11,12,04,04,38.60
2007,11,12,04,05,30.60
2007,11,12,04,06,19.30
2007,11,12,04,07,20.90
2007,11,12,04,08,19.30
2007,11,12,04,09,24.20
2007,11,12,04,10,16.10
2007,11,12,04,11,16.10
2007,11,12,04,12,19.30
2007,11,12,04,13,16.10
2007,11,12,04,14,17.70
2007,11,12,04,15,11.30
2007,11,12,04,16,11.30
2007,11,12,04,17,9.60
2007,11,12,04,18,6.40
2007,11,12,04,19,6.40
2007,11,12,04,20,17.70
2007,11,12,04,21,8.10
2007,11,12,04,22,11.30
2007,11,12,04,23,6.40
2007,11,12,04,24,24.20
2007,11,12,04,25,24.20
2007,11,12,04,26,22.50
2007,11,12,04,27,35.40
2007,11,12,04,28,9.60
2007,11,12,04,29,9.60
2007,11,12,04,30,16.10
2007,11,12,04,31,25.70
2007,11,12,04,32,32.20
2007,11,12,04,33,19.30
2007,11,12,04,34,11.30
2007,11,12,04,35,19.30
2007,11,12,04,36,19.30
2007,11,12,04,37,46.70
2007,11,12,04,38,17.70
2007,11,12,04,39,17.70
2007,11,12,04,40,20.90
2007,11,12,04,41,27.40
2007,11,12,04,42,14.50
2007,11,12,04,43,25.70
2007,11,12,04,44,24.20
2007,11,12,04,45,22.50
2007,11,12,04,46,17.70
2007,11,12,04,47,17.70
2007,11,12,04,48,16.10
2007,11,12,04,49,8.10
2007,11,12,04,50,16.10
2007,11,12,04,51,29.00
2007,11,12,04,52,24.20
2007,11,12,04,53,17.70
2007,11,12,04,54,14.50
2007,11,12,04,55,20.90
2007,11,12,04,56,19.30
2007,11,12,04,57,11.30
2007,11,12,04,58,32.20
2007,11,12,04,59,8.10
2007,11,12,05,00,14.50
2007,11,12,05,01,20.90
2007,11,12,05,02,9.60
2007,11,12,05,03,14.50
2007,11,12,05,04,24.20
2007,11,12,05,05,24.20
2007,11,12,05,06,17.70
2007,11,12,05,07,17.70
2007,11,12,05,08,17.70
2007,11,12,05,09,9.60
2007,11,12,05,10,20.90
2007,11,12,05,11,16.10
2007,11,12,05,12,22.50
2007,11,12,05,13,16.10
2007,11,12,05,14,8.10
2007,11,12,05,15,17.70
2007,11,12,05,16,17.70
2007,11,12,05,17,8.10
2007,11,12,05,18,16.10
2007,11,12,05,19,9.60
2007,11,12,05,20,24.20
2007,11,12,05,21,19.30
2007,11,12,05,22,20.90
2007,11,12,05,23,11.30
2007,11,12,05,24,6.40
2007,11,12,05,25,16.10
2007,11,12,05,26,24.20
2007,11,12,05,27,14.50
2007,11,12,05,28,9.60
2007,11,12,05,29,16.10
2007,11,12,05,30,24.20
2007,11,12,05,31,16.10
2007,11,12,05,32,16.10
2007,11,12,05,33,19.30
2007,11,12,05,34,16.10
2007,11,12,05,35,8.10
2007,11,12,05,36,8.10
2007,11,12,05,37,6.40
2007,11,12,05,38,9.60
2007,11,12,05,39,16.10
2007,11,12,05,40,19.30
2007,11,12,05,41,9.60
2007,11,12,05,42,16.10
2007,11,12,05,43,9.60
2007,11,12,05,44,6.40
2007,11,12,05,45,11.30
2007,11,12,05,46,20.90
2007,11,12,05,47,17.70
2007,11,12,05,48,9.60
2007,11,12,05,49,8.10
2007,11,12,05,50,8.10
2007,11,12,05,51,9.60
2007,11,12,05,52,17.70
2007,11,12,05,53,17.70
2007,11,12,05,54,20.90
2007,11,12,05,55,12.90
2007,11,12,05,56,19.30
2007,11,12,05,57,9.60
2007,11,12,05,58,11.30
2007,11,12,05,59,24.20
2007,11,12,06,00,14.50
2007,11,12,06,01,17.70
2007,11,12,06,02,17.70
2007,11,12,06,03,24.20
2007,11,12,06,04,24.20
2007,11,12,06,05,6.40
2007,11,12,06,06,12.90
2007,11,12,06,07,14.50
2007,11,12,06,08,9.60
2007,11,12,06,09,22.50
2007,11,12,06,10,14.50
2007,11,12,06,11,9.60
2007,11,12,06,12,22.50
2007,11,12,06,13,6.40
2007,11,12,06,14,8.10
2007,11,12,06,15,16.10
2007,11,12,06,16,9.60
2007,11,12,06,17,14.50
2007,11,12,06,18,16.10
2007,11,12,06,19,30.60
2007,11,12,06,20,17.70
2007,11,12,06,21,9.60
2007,11,12,06,22,22.50
2007,11,12,06,23,16.10
2007,11,12,06,24,17.70
2007,11,12,06,25,16.10
2007,11,12,06,26,22.50
2007,11,12,06,27,19.30
2007,11,12,06,28,25.70
2007,11,12,06,29,8.10
2007,11,12,06,30,11.30
2007,11,12,06,31,9.60
2007,11,12,06,32,17.70
2007,11,12,06,33,22.50
2007,11,12,06,34,16.10
2007,11,12,06,35,14.50
2007,11,12,06,36,11.30
2007,11,12,06,37,11.30
2007,11,12,06,38,17.70
2007,11,12,06,39,24.20
2007,11,12,06,40,25.70
2007,11,12,06,41,24.20
2007,11,12,06,42,22.50
2007,11,12,06,43,29.00
2007,11,12,06,44,14.50
2007,11,12,06,45,22.50
2007,11,12,06,46,19.30
2007,11,12,06,47,20.90
2007,11,12,06,48,24.20
2007,11,12,06,49,20.90
2007,11,12,06,50,27.40
2007,11,12,06,51,17.70
2007,11,12,06,52,8.10
2007,11,12,06,53,6.40
2007,11,12,06,54,29.00
2007,11,12,06,55,29.00
2007,11,12,06,56,25.70
2007,11,12,06,57,20.90
2007,11,12,06,58,14.50
2007,11,12,06,59,14.50
2007,11,12,07,00,27.40
2007,11,12,07,01,29.00
2007,11,12,07,02,16.10
2007,11,12,07,03,17.70
2007,11,12,07,04,24.20
2007,11,12,07,05,22.50
2007,11,12,07,06,35.40
2007,11,12,07,07,29.00
2007,11,12,07,08,22.50
2007,11,12,07,09,30.60
2007,11,12,07,10,22.50
2007,11,12,07,11,24.20
2007,11,12,07,12,16.10
2007,11,12,07,13,19.30
2007,11,12,07,14,22.50
2007,11,12,07,15,32.20
2007,11,12,07,16,19.30
2007,11,12,07,17,30.60
2007,11,12,07,18,30.60
2007,11,12,07,19,20.90
2007,11,12,07,20,16.10
2007,11,12,07,21,40.20
2007,11,12,07,22,30.60
2007,11,12,07,23,25.70
2007,11,12,07,24,20.90
2007,11,12,07,25,30.60
2007,11,12,07,26,11.30
2007,11,12,07,27,14.50
2007,11,12,07,28,19.30
2007,11,12,07,29,12.90
2007,11,12,07,30,24.20
2007,11,12,07,31,43.50
2007,11,12,07,32,19.30
2007,11,12,07,33,22.50
2007,11,12,07,34,22.50
2007,11,12,07,35,41.80
2007,11,12,07,36,35.40
2007,11,12,07,37,29.00
2007,11,12,07,38,30.60
2007,11,12,07,39,17.70
2007,11,12,07,40,29.00
2007,11,12,07,41,29.00
2007,11,12,07,42,33.80
2007,11,12,07,43,41.80
2007,11,12,07,44,29.00
2007,11,12,07,45,35.40
2007,11,12,07,46,33.80
2007,11,12,07,47,22.50
2007,11,12,07,48,29.00
2007,11,12,07,49,29.00
2007,11,12,07,50,19.30
2007,11,12,07,51,17.70
2007,11,12,07,52,16.10
2007,11,12,07,53,11.30
2007,11,12,07,54,30.60
2007,11,12,07,55,38.60
2007,11,12,07,56,35.40
2007,11,12,07,57,27.40
2007,11,12,07,58,17.70
2007,11,12,07,59,32.20
2007,11,12,08,00,24.20
2007,11,12,08,01,22.50
2007,11,12,08,02,20.90
2007,11,12,08,03,37.00
2007,11,12,08,04,25.70
2007,11,12,08,05,27.40
2007,11,12,08,06,40.20
2007,11,12,08,07,24.20
2007,11,12,08,08,37.00
2007,11,12,08,09,33.80
2007,11,12,08,10,35.40
2007,11,12,08,11,37.00
2007,11,12,08,12,19.30
2007,11,12,08,13,22.50
2007,11,12,08,14,30.60
2007,11,12,08,15,24.20
2007,11,12,08,16,17.70
2007,11,12,08,17,22.50
2007,11,12,08,18,22.50
2007,11,12,08,19,19.30
2007,11,12,08,20,38.60
2007,11,12,08,21,17.70
2007,11,12,08,22,32.20
2007,11,12,08,23,40.20
2007,11,12,08,24,24.20
2007,11,12,08,25,19.30
2007,11,12,08,26,20.90
2007,11,12,08,27,20.90
2007,11,12,08,28,33.80
2007,11,12,08,29,20.90
2007,11,12,08,30,27.40
2007,11,12,08,31,27.40
2007,11,12,08,32,20.90
2007,11,12,08,33,19.30
2007,11,12,08,34,17.70
2007,11,12,08,35,30.60
2007,11,12,08,36,24.20
2007,11,12,08,37,35.40
2007,11,12,08,38,38.60
2007,11,12,08,39,27.40
2007,11,12,08,40,41.80
2007,11,12,08,41,24.20
2007,11,12,08,42,24.20
2007,11,12,08,43,22.50
2007,11,12,08,44,32.20
2007,11,12,08,45,16.10
2007,11,12,08,46,20.90
2007,11,12,08,47,25.70
2007,11,12,08,48,35.40
2007,11,12,08,49,27.40
2007,11,12,08,50,45.10
2007,11,12,08,51,27.40
2007,11,12,08,52,22.50
2007,11,12,08,53,27.40
2007,11,12,08,54,45.10
2007,11,12,08,55,20.90
2007,11,12,08,56,27.40
2007,11,12,08,57,27.40
2007,11,12,08,58,24.20
2007,11,12,08,59,24.20
2007,11,12,09,00,29.00
2007,11,12,09,01,25.70
2007,11,12,09,02,14.50
2007,11,12,09,03,32.20
2007,11,12,09,04,30.60
2007,11,12,09,05,30.60
2007,11,12,09,06,27.40
2007,11,12,09,07,22.50
2007,11,12,09,08,25.70
2007,11,12,09,09,29.00
2007,11,12,09,10,35.40
2007,11,12,09,11,24.20
2007,11,12,09,12,17.70
2007,11,12,09,13,20.90
2007,11,12,09,14,25.70
2007,11,12,09,15,20.90
2007,11,12,09,16,30.60
2007,11,12,09,17,29.00
2007,11,12,09,18,30.60
2007,11,12,09,19,19.30
2007,11,12,09,20,9.60
2007,11,12,09,21,9.60
2007,11,12,09,22,22.50
2007,11,12,09,23,30.60
2007,11,12,09,24,25.70
2007,11,12,09,25,20.90
2007,11,12,09,26,19.30
2007,11,12,09,27,17.70
2007,11,12,09,28,16.10
2007,11,12,09,29,22.50
2007,11,12,09,30,22.50
2007,11,12,09,31,14.50
2007,11,12,09,32,17.70
2007,11,12,09,33,25.70
2007,11,12,09,34,11.30
2007,11,12,09,35,20.90
2007,11,12,09,36,25.70
2007,11,12,09,37,20.90
2007,11,12,09,38,16.10
2007,11,12,09,39,30.60
2007,11,12,09,40,22.50
2007,11,12,09,41,20.90
2007,11,12,09,42,24.20
2007,11,12,09,43,30.60
2007,11,12,09,44,16.10
2007,11,12,09,45,16.10
2007,11,12,09,46,14.50
2007,11,12,09,47,25.70
2007,11,12,09,48,25.70
2007,11,12,09,49,25.70
2007,11,12,09,50,11.30
2007,11,12,09,51,19.30
2007,11,12,09,52,22.50
2007,11,12,09,53,17.70
2007,11,12,09,54,19.30
2007,11,12,09,55,20.90
2007,11,12,09,56,17.70
2007,11,12,09,57,17.70
2007,11,12,09,58,19.30
2007,11,12,09,59,17.70
2007,11,12,10,00,30.60
2007,11,12,10,01,14.50
2007,11,12,10,02,11.30
2007,11,12,10,03,14.50
2007,11,12,10,04,6.40
2007,11,12,10,05,16.10
2007,11,12,10,06,19.30
2007,11,12,10,07,22.50
2007,11,12,10,08,19.30
2007,11,12,10,09,8.10
2007,11,12,10,10,20.90
2007,11,12,10,11,17.70
2007,11,12,10,12,9.60
2007,11,12,10,13,24.20
2007,11,12,10,14,20.90
2007,11,12,10,15,9.60
2007,11,12,10,16,4.80
2007,11,12,10,17,8.10
2007,11,12,10,18,22.50
2007,11,12,10,19,12.90
2007,11,12,10,20,8.10
2007,11,12,10,21,11.30
2007,11,12,10,22,11.30
2007,11,12,10,23,17.70
2007,11,12,10,24,14.50
2007,11,12,10,25,16.10
2007,11,12,10,26,9.60
2007,11,12,10,27,8.10
2007,11,12,10,28,11.30
2007,11,12,10,29,6.40
2007,11,12,10,30,1.60
2007,11,12,10,31,8.10
2007,11,12,10,32,11.30
2007,11,12,10,33,6.40
2007,11,12,10,34,8.10
2007,11,12,10,35,3.20
2007,11,12,10,36,11.30
2007,11,12,10,37,9.60
2007,11,12,10,38,12.90
2007,11,12,10,39,12.90
2007,11,12,10,40,8.10
2007,11,12,10,41,6.40
2007,11,12,10,42,8.10
2007,11,12,10,43,6.40
2007,11,12,10,44,1.60
2007,11,12,10,45,8.10
2007,11,12,10,46,6.40
2007,11,12,10,47,8.10
2007,11,12,10,48,9.60
2007,11,12,10,49,19.30
2007,11,12,10,50,14.50
2007,11,12,10,51,25.70
2007,11,12,10,52,25.70
2007,11,12,10,53,27.40
2007,11,12,10,54,25.70
2007,11,12,10,55,30.60
2007,11,12,10,56,16.10
2007,11,12,10,57,14.50
2007,11,12,10,58,17.70
2007,11,12,10,59,19.30
2007,11,12,11,00,17.70
2007,11,12,11,01,24.20
2007,11,12,11,02,16.10
2007,11,12,11,03,14.50
2007,11,12,11,04,22.50
2007,11,12,11,05,17.70
2007,11,12,11,06,19.30
2007,11,12,11,07,17.70
2007,11,12,11,08,19.30
2007,11,12,11,09,20.90
2007,11,12,11,10,29.00
2007,11,12,11,11,20.90
2007,11,12,11,12,20.90
2007,11,12,11,13,20.90
2007,11,12,11,14,22.50
2007,11,12,11,15,29.00
2007,11,12,11,16,25.70
2007,11,12,11,17,24.20
2007,11,12,11,18,17.70
2007,11,12,11,19,25.70
2007,11,12,11,20,22.50
2007,11,12,11,21,17.70
2007,11,12,11,22,22.50
2007,11,12,11,23,11.30
2007,11,12,11,24,11.30
2007,11,12,11,25,9.60
2007,11,12,11,26,20.90
2007,11,12,11,27,20.90
2007,11,12,11,28,16.10
2007,11,12,11,29,19.30
2007,11,12,11,30,11.30
2007,11,12,11,31,19.30
2007,11,12,11,32,20.90
2007,11,12,11,33,20.90
2007,11,12,11,34,14.50
2007,11,12,11,35,17.70
2007,11,12,11,36,22.50
2007,11,12,11,37,29.00
2007,11,12,11,38,20.90
2007,11,12,11,39,22.50
2007,11,12,11,40,16.10
2007,11,12,11,41,17.70
2007,11,12,11,42,25.70
2007,11,12,11,43,19.30
2007,11,12,11,44,29.00
2007,11,12,11,45,16.10
2007,11,12,11,46,19.30
2007,11,12,11,47,32.20
2007,11,12,11,48,32.20
2007,11,12,11,49,30.60
2007,11,12,11,50,27.40
2007,11,12,11,51,22.50
2007,11,12,11,52,22.50
2007,11,12,11,53,25.70
2007,11,12,11,54,20.90
2007,11,12,11,55,27.40
2007,11,12,11,56,40.20
2007,11,12,11,57,29.00
2007,11,12,11,58,17.70
2007,11,12,11,59,29.00
2007,11,12,12,00,27.40
2007,11,12,12,01,33.80
2007,11,12,12,02,30.60
2007,11,12,12,03,29.00
2007,11,12,12,04,27.40
2007,11,12,12,05,27.40
2007,11,12,12,06,19.30
2007,11,12,12,07,29.00
2007,11,12,12,08,25.70
2007,11,12,12,09,27.40
2007,11,12,12,10,30.60
2007,11,12,12,11,27.40
2007,11,12,12,12,43.50
2007,11,12,12,13,41.80
2007,11,12,12,14,33.80
2007,11,12,12,15,37.00
2007,11,12,12,16,37.00
2007,11,12,12,17,27.40
2007,11,12,12,18,40.20
2007,11,12,12,19,29.00
2007,11,12,12,20,29.00
2007,11,12,12,21,25.70
2007,11,12,12,22,35.40
2007,11,12,12,23,29.00
2007,11,12,12,24,29.00
2007,11,12,12,25,35.40
2007,11,12,12,26,45.10
2007,11,12,12,27,33.80
2007,11,12,12,28,27.40
2007,11,12,12,29,33.80
2007,11,12,12,30,49.90
2007,11,12,12,31,32.20
2007,11,12,12,32,53.10
2007,11,12,12,33,24.20
2007,11,12,12,34,40.20
2007,11,12,12,35,32.20
2007,11,12,12,36,45.10
2007,11,12,12,37,38.60
2007,11,12,12,38,29.00
2007,11,12,12,39,30.60
2007,11,12,12,40,40.20
2007,11,12,12,41,37.00
2007,11,12,12,42,25.70
2007,11,12,12,43,40.20
2007,11,12,12,44,29.00
2007,11,12,12,45,51.50
2007,11,12,12,46,33.80
2007,11,12,12,47,35.40
2007,11,12,12,48,32.20
2007,11,12,12,49,37.00
2007,11,12,12,50,48.30
2007,11,12,12,51,56.30
2007,11,12,12,52,29.00
2007,11,12,12,53,27.40
2007,11,12,12,54,40.20
2007,11,12,12,55,33.80
2007,11,12,12,56,38.60
2007,11,12,12,57,38.60
2007,11,12,12,58,46.70
2007,11,12,12,59,45.10
2007,11,12,13,00,45.10
2007,11,12,13,01,40.20
2007,11,12,13,02,32.20
2007,11,12,13,03,25.70
2007,11,12,13,04,51.50
2007,11,12,13,05,29.00
2007,11,12,13,06,35.40
2007,11,12,13,07,45.10
2007,11,12,13,08,29.00
2007,11,12,13,09,33.80
2007,11,12,13,10,53.10
2007,11,12,13,11,37.00
2007,11,12,13,12,25.70
2007,11,12,13,13,35.40
2007,11,12,13,14,46.70
2007,11,12,13,15,43.50
2007,11,12,13,16,40.20
2007,11,12,13,17,46.70
2007,11,12,13,18,35.40
2007,11,12,13,19,37.00
2007,11,12,13,20,43.50
2007,11,12,13,21,41.80
2007,11,12,13,22,29.00
2007,11,12,13,23,38.60
2007,11,12,13,24,37.00
2007,11,12,13,25,38.60
2007,11,12,13,26,35.40
2007,11,12,13,27,16.10
2007,11,12,13,28,25.70
2007,11,12,13,29,38.60
2007,11,12,13,30,35.40
2007,11,12,13,31,30.60
2007,11,12,13,32,22.50
2007,11,12,13,33,37.00
2007,11,12,13,34,32.20
2007,11,12,13,35,19.30
2007,11,12,13,36,20.90
2007,11,12,13,37,41.80
2007,11,12,13,38,32.20
2007,11,12,13,39,46.70
2007,11,12,13,40,29.00
2007,11,12,13,41,20.90
2007,11,12,13,42,25.70
2007,11,12,13,43,19.30
2007,11,12,13,44,17.70
2007,11,12,13,45,22.50
2007,11,12,13,46,17.70
2007,11,12,13,47,14.50
2007,11,12,13,48,11.30
2007,11,12,13,49,24.20
2007,11,12,13,50,16.10
2007,11,12,13,51,11.30
2007,11,12,13,52,8.10
2007,11,12,13,53,8.10
2007,11,12,13,54,4.80
2007,11,12,13,55,1.60
2007,11,12,13,56,6.40
2007,11,12,13,57,9.60
2007,11,12,13,58,14.50
2007,11,12,13,59,25.70
2007,11,12,14,00,29.00
2007,11,12,14,01,29.00
2007,11,12,14,02,19.30
2007,11,12,14,03,9.60
2007,11,12,14,04,19.30
2007,11,12,14,05,17.70
2007,11,12,14,06,16.10
2007,11,12,14,07,20.90
2007,11,12,14,08,22.50
2007,11,12,14,09,12.90
2007,11,12,14,10,16.10
2007,11,12,14,11,9.60
2007,11,12,14,12,8.10
2007,11,12,14,13,4.80
2007,11,12,14,14,20.90
2007,11,12,14,15,20.90
2007,11,12,14,16,12.90
2007,11,12,14,17,22.50
2007,11,12,14,18,16.10
2007,11,12,14,19,17.70
2007,11,12,14,20,11.30
2007,11,12,14,21,9.60
2007,11,12,14,22,9.60
2007,11,12,14,23,20.90
2007,11,12,14,24,25.70
2007,11,12,14,25,19.30
2007,11,12,14,26,9.60
2007,11,12,14,27,27.40
2007,11,12,14,28,30.60
2007,11,12,14,29,16.10
2007,11,12,14,30,27.40
2007,11,12,14,31,29.00
2007,11,12,14,32,17.70
2007,11,12,14,33,24.20
2007,11,12,14,34,32.20
2007,11,12,14,35,19.30
2007,11,12,14,36,16.10
2007,11,12,14,37,19.30
2007,11,12,14,38,29.00
2007,11,12,14,39,27.40
2007,11,12,14,40,25.70
2007,11,12,14,41,29.00
2007,11,12,14,42,38.60
2007,11,12,14,43,29.00
2007,11,12,14,44,25.70
2007,11,12,14,45,19.30
2007,11,12,14,46,17.70
2007,11,12,14,47,29.00
2007,11,12,14,48,25.70
2007,11,12,14,49,16.10
2007,11,12,14,50,11.30
2007,11,12,14,51,22.50
2007,11,12,14,52,19.30
2007,11,12,14,53,22.50
2007,11,12,14,54,24.20
2007,11,12,14,55,9.60
2007,11,12,14,56,20.90
2007,11,12,14,57,19.30
2007,11,12,14,58,17.70
2007,11,12,14,59,19.30
2007,11,12,15,00,20.90
2007,11,12,15,01,16.10
2007,11,12,15,02,14.50
2007,11,12,15,03,9.60
2007,11,12,15,04,14.50
2007,11,12,15,05,16.10
2007,11,12,15,06,9.60
2007,11,12,15,07,17.70
2007,11,12,15,08,16.10
2007,11,12,15,09,17.70
2007,11,12,15,10,14.50
2007,11,12,15,11,11.30
2007,11,12,15,12,9.60
2007,11,12,15,13,6.40
2007,11,12,15,14,4.80
2007,11,12,15,15,8.10
2007,11,12,15,16,9.60
2007,11,12,15,17,3.20
2007,11,12,15,18,6.40
2007,11,12,15,19,8.10
2007,11,12,15,20,8.10
2007,11,12,15,21,1.60
2007,11,12,15,22,3.20
2007,11,12,15,23,3.20
2007,11,12,15,24,3.20
2007,11,12,15,25,6.40
2007,11,12,15,26,6.40
2007,11,12,15,27,9.60
2007,11,12,15,28,8.10
2007,11,12,15,29,6.40
2007,11,12,15,30,11.30
2007,11,12,15,31,8.10
2007,11,12,15,32,6.40
2007,11,12,15,33,1.60
2007,11,12,15,34,3.20
2007,11,12,15,35,6.40
2007,11,12,15,36,6.40
2007,11,12,15,37,6.40
2007,11,12,15,38,9.60
2007,11,12,15,39,8.10
2007,11,12,15,40,8.10
2007,11,12,15,41,4.80
2007,11,12,15,42,4.80
2007,11,12,15,43,8.10
2007,11,12,15,44,8.10
2007,11,12,15,45,9.60
2007,11,12,15,46,8.10
2007,11,12,15,47,4.80
2007,11,12,15,48,4.80
2007,11,12,15,49,1.60
2007,11,12,15,50,8.10
2007,11,12,15,51,14.50
2007,11,12,15,52,9.60
2007,11,12,15,53,9.60
2007,11,12,15,54,14.50
2007,11,12,15,55,14.50
2007,11,12,15,56,19.30
2007,11,12,15,57,6.40
2007,11,12,15,58,11.30
2007,11,12,15,59,16.10
2007,11,12,16,00,12.90
2007,11,12,16,01,16.10
2007,11,12,16,02,9.60
2007,11,12,16,03,6.40
2007,11,12,16,04,11.30
2007,11,12,16,05,8.10
2007,11,12,16,06,12.90
2007,11,12,16,07,8.10
2007,11,12,16,08,8.10
2007,11,12,16,09,11.30
2007,11,12,16,10,20.90
2007,11,12,16,11,11.30
2007,11,12,16,12,14.50
2007,11,12,16,13,4.80
2007,11,12,16,14,8.10
2007,11,12,16,15,6.40
2007,11,12,16,16,6.40
2007,11,12,16,17,3.20
2007,11,12,16,18,9.60
2007,11,12,16,19,6.40
2007,11,12,16,20,16.10
2007,11,12,16,21,9.60
2007,11,12,16,22,16.10
2007,11,12,16,23,6.40
2007,11,12,16,24,6.40
2007,11,12,16,25,6.40
2007,11,12,16,26,1.60
2007,11,12,16,27,1.60
2007,11,12,16,28,0.00
2007,11,12,16,29,6.40
2007,11,12,16,30,8.10
2007,11,12,16,31,4.80
2007,11,12,16,32,0.00
2007,11,12,16,33,0.00
2007,11,12,16,34,1.60
2007,11,12,16,35,1.60
2007,11,12,16,36,3.20
2007,11,12,16,37,3.20
2007,11,12,16,38,0.00
2007,11,12,16,39,0.00
2007,11,12,16,40,0.00
2007,11,12,16,41,4.80
2007,11,12,16,42,3.20
2007,11,12,16,43,3.20
2007,11,12,16,44,1.60
2007,11,12,16,45,1.60
2007,11,12,16,46,3.20
2007,11,12,16,47,1.60
2007,11,12,16,48,0.00
2007,11,12,16,49,4.80
2007,11,12,16,50,8.10
2007,11,12,16,51,8.10
2007,11,12,16,52,3.20
2007,11,12,16,53,0.00
2007,11,12,16,54,0.00
2007,11,12,16,55,1.60
2007,11,12,16,56,3.20
2007,11,12,16,57,3.20
2007,11,12,16,58,6.40
2007,11,12,16,59,8.10
2007,11,12,17,00,11.30
2007,11,12,17,01,8.10
2007,11,12,17,02,3.20
2007,11,12,17,03,1.60
2007,11,12,17,04,3.20
2007,11,12,17,05,1.60
2007,11,12,17,06,0.00
2007,11,12,17,07,3.20
2007,11,12,17,08,4.80
2007,11,12,17,09,3.20
2007,11,12,17,10,3.20
2007,11,12,17,11,3.20
2007,11,12,17,12,4.80
2007,11,12,17,13,4.80
2007,11,12,17,14,3.20
2007,11,12,17,15,1.60
2007,11,12,17,16,4.80
2007,11,12,17,17,6.40
2007,11,12,17,18,9.60
2007,11,12,17,19,11.30
2007,11,12,17,20,9.60
2007,11,12,17,21,1.60
2007,11,12,17,22,16.10
2007,11,12,17,23,6.40
2007,11,12,17,24,8.10
2007,11,12,17,25,6.40
2007,11,12,17,26,6.40
2007,11,12,17,27,8.10
2007,11,12,17,28,6.40
2007,11,12,17,29,9.60
2007,11,12,17,30,6.40
2007,11,12,17,31,19.30
2007,11,12,17,32,11.30
2007,11,12,17,33,6.40
2007,11,12,17,34,11.30